GB-0126 weather

CLOSED RAF Bognor
West Sussex, England, United Kingdom

Public forecast

Using degrees Celsius for public forecast. Weather courtesy of forecast.io.

METAR (pilot weather report)

Closest report is Shoreham Airport, 15.6 nm (28.8 km) E. Retrieved 2018/12/19 14:50 UTC (1 hour ago):

EGKA 191450Z 25006KT 6000 -SHRA FEW007 SCT031CB 08/07 Q1006

TAF (pilot weather forecast)

Forecast is more than 12 hours old.

Closest forecast is Shoreham Airport, 15.6 nm (28.8 km) E. Retrieved 2016/03/02 12:00 UTC (3 years ago):

TAF EGKA 021104Z 0212/0221 25015G25KT 9999 SCT020 TEMPO 0212/0216 25025G38KT 5000 SHRA BKN012CB PROB30 TEMPO 0212/0215 2500 +SHGS +SHRASN TEMPO 0216/0221 29025G35KT TEMPO 0218/0221 BKN014